Time,TemperatureF,DewpointF,PressureIn,WindDirection,WindDirectionDegrees,WindSpeedMPH,WindSpeedGustMPH,Humidity,HourlyPrecipIn,Conditions,Clouds,dailyrainin,SoftwareType,DateUTC
2013-05-05 00:00:00,45.0,40.0,30.30,NE,40,18.0,20.0,80,-99.99,,,-99.99,,2013-05-05 04:00:00,
2013-05-05 00:22:00,45.0,40.0,30.30,NE,40,18.0,20.0,80,-99.99,,,-99.99,,2013-05-05 04:22:00,
2013-05-05 00:32:00,45.0,40.0,30.30,NE,40,18.0,20.0,80,-99.99,,,-99.99,,2013-05-05 04:32:00,
2013-05-05 00:43:00,45.0,40.0,30.30,NE,40,18.0,20.0,80,-99.99,,,-99.99,,2013-05-05 04:43:00,
2013-05-05 00:52:00,45.0,40.0,30.30,NE,40,18.0,20.0,80,-99.99,,,-99.99,,2013-05-05 04:52:00,
2013-05-05 01:00:00,46.0,41.0,30.30,NE,40,16.0,17.0,83,-99.99,,,-99.99,,2013-05-05 05:00:00,
2013-05-05 01:21:00,46.0,41.0,30.30,NE,40,16.0,17.0,83,-99.99,,,-99.99,,2013-05-05 05:21:00,
2013-05-05 01:31:00,46.0,41.0,30.30,NE,40,16.0,17.0,83,-99.99,,,-99.99,,2013-05-05 05:31:00,
2013-05-05 01:42:00,46.0,41.0,30.30,NE,40,16.0,17.0,83,-99.99,,,-99.99,,2013-05-05 05:42:00,
2013-05-05 01:51:00,46.0,41.0,30.30,NE,40,16.0,17.0,83,-99.99,,,-99.99,,2013-05-05 05:51:00,
2013-05-05 02:00:00,45.0,42.0,30.29,North,10,14.0,16.0,92,-99.99,,,-99.99,,2013-05-05 06:00:00,
2013-05-05 02:21:00,45.0,42.0,30.29,North,10,14.0,16.0,92,-99.99,,,-99.99,,2013-05-05 06:21:00,
2013-05-05 02:31:00,45.0,42.0,30.29,North,10,14.0,16.0,92,-99.99,,,-99.99,,2013-05-05 06:31:00,
2013-05-05 02:41:00,45.0,42.0,30.29,North,10,14.0,16.0,92,-99.99,,,-99.99,,2013-05-05 06:41:00,
2013-05-05 02:51:00,45.0,42.0,30.29,North,10,14.0,16.0,92,-99.99,,,-99.99,,2013-05-05 06:51:00,
2013-05-05 03:00:00,44.0,42.0,30.28,North,10,14.0,15.0,93,-99.99,,,-99.99,,2013-05-05 07:00:00,
2013-05-05 03:21:00,44.0,42.0,30.28,North,10,14.0,15.0,93,-99.99,,,-99.99,,2013-05-05 07:21:00,
2013-05-05 03:31:00,44.0,42.0,30.28,North,10,14.0,15.0,93,-99.99,,,-99.99,,2013-05-05 07:31:00,
2013-05-05 03:42:00,44.0,42.0,30.28,North,10,14.0,15.0,93,-99.99,,,-99.99,,2013-05-05 07:42:00,
2013-05-05 03:52:00,44.0,42.0,30.28,North,10,14.0,15.0,93,-99.99,,,-99.99,,2013-05-05 07:52:00,
2013-05-05 04:00:00,44.0,42.0,30.27,North,10,15.0,16.0,93,-99.99,,,-99.99,,2013-05-05 08:00:00,
2013-05-05 04:21:00,44.0,42.0,30.27,North,10,15.0,16.0,93,-99.99,,,-99.99,,2013-05-05 08:21:00,
2013-05-05 04:31:00,44.0,42.0,30.27,North,10,15.0,16.0,93,-99.99,,,-99.99,,2013-05-05 08:31:00,
2013-05-05 04:42:00,44.0,42.0,30.27,North,10,15.0,16.0,93,-99.99,,,-99.99,,2013-05-05 08:42:00,
2013-05-05 04:52:00,44.0,42.0,30.27,North,10,15.0,16.0,93,-99.99,,,-99.99,,2013-05-05 08:52:00,
2013-05-05 05:00:00,44.0,43.0,30.28,NNE,20,14.0,17.0,95,-99.99,,,-99.99,,2013-05-05 09:00:00,
2013-05-05 05:21:00,44.0,43.0,30.28,NNE,20,14.0,17.0,95,-99.99,,,-99.99,,2013-05-05 09:21:00,
2013-05-05 05:32:00,44.0,43.0,30.28,NNE,20,14.0,17.0,95,-99.99,,,-99.99,,2013-05-05 09:32:00,
2013-05-05 05:42:00,44.0,43.0,30.28,NNE,20,14.0,17.0,95,-99.99,,,-99.99,,2013-05-05 09:42:00,
2013-05-05 05:52:00,44.0,43.0,30.28,NNE,20,14.0,17.0,95,-99.99,,,-99.99,,2013-05-05 09:52:00,
2013-05-05 06:00:00,44.0,43.0,30.28,North,10,14.0,15.0,95,-99.99,,,-99.99,,2013-05-05 10:00:00,
2013-05-05 06:22:00,44.0,43.0,30.28,North,10,14.0,15.0,95,-99.99,,,-99.99,,2013-05-05 10:22:00,
2013-05-05 06:31:00,44.0,43.0,30.28,North,10,14.0,15.0,95,-99.99,,,-99.99,,2013-05-05 10:31:00,
2013-05-05 06:42:00,44.0,43.0,30.28,North,10,14.0,15.0,95,-99.99,,,-99.99,,2013-05-05 10:42:00,
2013-05-05 06:52:00,44.0,43.0,30.28,North,10,14.0,15.0,95,-99.99,,,-99.99,,2013-05-05 10:52:00,
2013-05-05 07:00:00,45.0,44.0,30.30,NNE,20,13.0,16.0,94,-99.99,,,-99.99,,2013-05-05 11:00:00,
2013-05-05 07:21:00,45.0,44.0,30.30,NNE,20,13.0,16.0,94,-99.99,,,-99.99,,2013-05-05 11:21:00,
2013-05-05 07:32:00,45.0,44.0,30.30,NNE,20,13.0,16.0,94,-99.99,,,-99.99,,2013-05-05 11:32:00,
2013-05-05 07:41:00,45.0,44.0,30.30,NNE,20,13.0,16.0,94,-99.99,,,-99.99,,2013-05-05 11:41:00,
2013-05-05 07:51:00,45.0,44.0,30.30,NNE,20,13.0,16.0,94,-99.99,,,-99.99,,2013-05-05 11:51:00,
2013-05-05 08:00:00,46.0,42.0,30.30,NE,40,17.0,18.0,85,-99.99,,,-99.99,,2013-05-05 12:00:00,
2013-05-05 08:21:00,46.0,42.0,30.30,NE,40,17.0,18.0,85,-99.99,,,-99.99,,2013-05-05 12:21:00,
2013-05-05 08:31:00,46.0,42.0,30.30,NE,40,17.0,18.0,85,-99.99,,,-99.99,,2013-05-05 12:31:00,
2013-05-05 08:42:00,46.0,42.0,30.30,NE,40,17.0,18.0,85,-99.99,,,-99.99,,2013-05-05 12:42:00,
2013-05-05 08:51:00,46.0,42.0,30.30,NE,40,17.0,18.0,85,-99.99,,,-99.99,,2013-05-05 12:51:00,
2013-05-05 09:00:00,47.0,42.0,30.29,NE,40,18.0,20.0,81,-99.99,,,-99.99,,2013-05-05 13:00:00,
2013-05-05 09:21:00,47.0,42.0,30.29,NE,40,18.0,20.0,81,-99.99,,,-99.99,,2013-05-05 13:21:00,
2013-05-05 09:32:00,47.0,42.0,30.29,NE,40,18.0,20.0,81,-99.99,,,-99.99,,2013-05-05 13:32:00,
2013-05-05 09:42:00,47.0,42.0,30.29,NE,40,18.0,20.0,81,-99.99,,,-99.99,,2013-05-05 13:42:00,
2013-05-05 09:52:00,47.0,42.0,30.29,NE,40,18.0,20.0,81,-99.99,,,-99.99,,2013-05-05 13:52:00,
2013-05-05 10:00:00,48.0,43.0,30.30,NE,40,15.0,16.0,81,-99.99,,,-99.99,,2013-05-05 14:00:00,
2013-05-05 10:21:00,48.0,43.0,30.30,NE,40,15.0,16.0,81,-99.99,,,-99.99,,2013-05-05 14:21:00,
2013-05-05 10:31:00,48.0,43.0,30.30,NE,40,15.0,16.0,81,-99.99,,,-99.99,,2013-05-05 14:31:00,
2013-05-05 10:41:00,48.0,43.0,30.30,NE,40,15.0,16.0,81,-99.99,,,-99.99,,2013-05-05 14:41:00,
2013-05-05 10:51:00,48.0,43.0,30.30,NE,40,15.0,16.0,81,-99.99,,,-99.99,,2013-05-05 14:51:00,
2013-05-05 11:00:00,49.0,41.0,30.31,ENE,60,14.0,16.0,72,-99.99,,,-99.99,,2013-05-05 15:00:00,
2013-05-05 11:21:00,49.0,41.0,30.31,ENE,60,14.0,16.0,72,-99.99,,,-99.99,,2013-05-05 15:21:00,
2013-05-05 11:32:00,49.0,41.0,30.31,ENE,60,14.0,16.0,72,-99.99,,,-99.99,,2013-05-05 15:32:00,
2013-05-05 11:42:00,49.0,41.0,30.31,ENE,60,14.0,16.0,72,-99.99,,,-99.99,,2013-05-05 15:42:00,
2013-05-05 11:53:00,49.0,41.0,30.31,ENE,60,14.0,16.0,72,-99.99,,,-99.99,,2013-05-05 15:53:00,
2013-05-05 12:00:00,51.0,40.0,30.30,ENE,70,10.0,11.0,65,-99.99,,,-99.99,,2013-05-05 16:00:00,
2013-05-05 12:22:00,51.0,40.0,30.30,ENE,70,10.0,11.0,65,-99.99,,,-99.99,,2013-05-05 16:22:00,
2013-05-05 12:32:00,51.0,40.0,30.30,ENE,70,10.0,11.0,65,-99.99,,,-99.99,,2013-05-05 16:32:00,
2013-05-05 12:42:00,51.0,40.0,30.30,ENE,70,10.0,11.0,65,-99.99,,,-99.99,,2013-05-05 16:42:00,
2013-05-05 12:52:00,51.0,40.0,30.30,ENE,70,10.0,11.0,65,-99.99,,,-99.99,,2013-05-05 16:52:00,
2013-05-05 13:00:00,51.0,42.0,30.30,ENE,60,9.0,10.0,69,-99.99,,,-99.99,,2013-05-05 17:00:00,
2013-05-05 13:23:00,51.0,42.0,30.30,ENE,60,9.0,10.0,69,-99.99,,,-99.99,,2013-05-05 17:23:00,
2013-05-05 13:31:00,51.0,42.0,30.30,ENE,60,9.0,10.0,69,-99.99,,,-99.99,,2013-05-05 17:31:00,
2013-05-05 13:41:00,51.0,42.0,30.30,ENE,60,9.0,10.0,69,-99.99,,,-99.99,,2013-05-05 17:41:00,
2013-05-05 13:52:00,51.0,42.0,30.30,ENE,60,9.0,10.0,69,-99.99,,,-99.99,,2013-05-05 17:52:00,
2013-05-05 14:00:00,51.0,39.0,30.29,ENE,70,15.0,16.0,61,-99.99,,,-99.99,,2013-05-05 18:00:00,
2013-05-05 14:21:00,51.0,39.0,30.29,ENE,70,15.0,16.0,61,-99.99,,,-99.99,,2013-05-05 18:21:00,
2013-05-05 14:31:00,51.0,39.0,30.29,ENE,70,15.0,16.0,61,-99.99,,,-99.99,,2013-05-05 18:31:00,
2013-05-05 14:41:00,51.0,39.0,30.29,ENE,70,15.0,16.0,61,-99.99,,,-99.99,,2013-05-05 18:41:00,
2013-05-05 14:51:00,51.0,39.0,30.29,ENE,70,15.0,16.0,61,-99.99,,,-99.99,,2013-05-05 18:51:00,
2013-05-05 15:00:00,52.0,40.0,30.28,ENE,70,16.0,17.0,63,-99.99,,,-99.99,,2013-05-05 19:00:00,
2013-05-05 15:21:00,52.0,40.0,30.28,ENE,70,16.0,17.0,63,-99.99,,,-99.99,,2013-05-05 19:21:00,
2013-05-05 15:32:00,52.0,40.0,30.28,ENE,70,16.0,17.0,63,-99.99,,,-99.99,,2013-05-05 19:32:00,
2013-05-05 15:41:00,52.0,40.0,30.28,ENE,70,16.0,17.0,63,-99.99,,,-99.99,,2013-05-05 19:41:00,
2013-05-05 15:51:00,52.0,40.0,30.28,ENE,70,16.0,17.0,63,-99.99,,,-99.99,,2013-05-05 19:51:00,
2013-05-05 16:00:00,51.0,45.0,30.27,East,90,5.0,6.0,81,-99.99,,,-99.99,,2013-05-05 20:00:00,
2013-05-05 16:21:00,51.0,45.0,30.27,East,90,5.0,6.0,81,-99.99,,,-99.99,,2013-05-05 20:21:00,
2013-05-05 16:31:00,51.0,45.0,30.27,East,90,5.0,6.0,81,-99.99,,,-99.99,,2013-05-05 20:31:00,
2013-05-05 16:41:00,51.0,45.0,30.27,East,90,5.0,6.0,81,-99.99,,,-99.99,,2013-05-05 20:41:00,
2013-05-05 16:52:00,51.0,45.0,30.27,East,90,5.0,6.0,81,-99.99,,,-99.99,,2013-05-05 20:52:00,
2013-05-05 17:00:00,49.0,45.0,30.26,ESE,120,15.0,16.0,83,-99.99,,,-99.99,,2013-05-05 21:00:00,
2013-05-05 17:21:00,49.0,45.0,30.26,ESE,120,15.0,16.0,83,-99.99,,,-99.99,,2013-05-05 21:21:00,
2013-05-05 17:32:00,49.0,45.0,30.26,ESE,120,15.0,16.0,83,-99.99,,,-99.99,,2013-05-05 21:32:00,
2013-05-05 17:42:00,49.0,45.0,30.26,ESE,120,15.0,16.0,83,-99.99,,,-99.99,,2013-05-05 21:42:00,
2013-05-05 17:52:00,49.0,45.0,30.26,ESE,120,15.0,16.0,83,-99.99,,,-99.99,,2013-05-05 21:52:00,
2013-05-05 18:00:00,49.0,45.0,30.26,ESE,120,20.0,20.0,86,-99.99,,,-99.99,,2013-05-05 22:00:00,
2013-05-05 18:22:00,49.0,45.0,30.26,ESE,120,20.0,20.0,86,-99.99,,,-99.99,,2013-05-05 22:22:00,
2013-05-05 18:33:00,49.0,45.0,30.26,ESE,120,20.0,20.0,86,-99.99,,,-99.99,,2013-05-05 22:33:00,
2013-05-05 18:41:00,49.0,45.0,30.26,ESE,120,20.0,20.0,86,-99.99,,,-99.99,,2013-05-05 22:41:00,
2013-05-05 18:52:00,49.0,45.0,30.26,ESE,120,20.0,20.0,86,-99.99,,,-99.99,,2013-05-05 22:52:00,
2013-05-05 19:00:00,49.0,43.0,30.26,ENE,70,15.0,16.0,79,-99.99,,,-99.99,,2013-05-05 23:00:00,
2013-05-05 19:21:00,49.0,43.0,30.26,ENE,70,15.0,16.0,79,-99.99,,,-99.99,,2013-05-05 23:21:00,
2013-05-05 19:31:00,49.0,43.0,30.26,ENE,70,15.0,16.0,79,-99.99,,,-99.99,,2013-05-05 23:31:00,
2013-05-05 19:41:00,49.0,43.0,30.26,ENE,70,15.0,16.0,79,-99.99,,,-99.99,,2013-05-05 23:41:00,
2013-05-05 19:52:00,49.0,43.0,30.26,ENE,70,15.0,16.0,79,-99.99,,,-99.99,,2013-05-05 23:52:00,
2013-05-05 20:00:00,48.0,41.0,30.27,East,90,18.0,21.0,78,-99.99,,,-99.99,,2013-05-06 00:00:00,
2013-05-05 20:21:00,48.0,41.0,30.27,East,90,18.0,21.0,78,-99.99,,,-99.99,,2013-05-06 00:21:00,
2013-05-05 20:31:00,48.0,41.0,30.27,East,90,18.0,21.0,78,-99.99,,,-99.99,,2013-05-06 00:31:00,
2013-05-05 20:41:00,48.0,41.0,30.27,East,90,18.0,21.0,78,-99.99,,,-99.99,,2013-05-06 00:41:00,
2013-05-05 20:51:00,48.0,41.0,30.27,East,90,18.0,21.0,78,-99.99,,,-99.99,,2013-05-06 00:51:00,
2013-05-05 21:00:00,47.0,43.0,30.28,East,90,15.0,17.0,84,-99.99,,,-99.99,,2013-05-06 01:00:00,
2013-05-05 21:21:00,47.0,43.0,30.28,East,90,15.0,17.0,84,-99.99,,,-99.99,,2013-05-06 01:21:00,
2013-05-05 21:31:00,47.0,43.0,30.28,East,90,15.0,17.0,84,-99.99,,,-99.99,,2013-05-06 01:31:00,
2013-05-05 21:41:00,47.0,43.0,30.28,East,90,15.0,17.0,84,-99.99,,,-99.99,,2013-05-06 01:41:00,
2013-05-05 21:51:00,47.0,43.0,30.28,East,90,15.0,17.0,84,-99.99,,,-99.99,,2013-05-06 01:51:00,
2013-05-05 22:00:00,47.0,43.0,30.29,East,100,11.0,14.0,86,-99.99,,,-99.99,,2013-05-06 02:00:00,
2013-05-05 22:21:00,47.0,43.0,30.29,East,100,11.0,14.0,86,-99.99,,,-99.99,,2013-05-06 02:21:00,
2013-05-05 22:31:00,47.0,43.0,30.29,East,100,11.0,14.0,86,-99.99,,,-99.99,,2013-05-06 02:31:00,
2013-05-05 22:42:00,47.0,43.0,30.29,East,100,11.0,14.0,86,-99.99,,,-99.99,,2013-05-06 02:42:00,
2013-05-05 22:51:00,47.0,43.0,30.29,East,100,11.0,14.0,86,-99.99,,,-99.99,,2013-05-06 02:51:00,
2013-05-05 23:00:00,46.0,43.0,30.29,East,80,8.0,10.0,90,-99.99,,,-99.99,,2013-05-06 03:00:00,
2013-05-05 23:21:00,46.0,43.0,30.29,East,80,8.0,10.0,90,-99.99,,,-99.99,,2013-05-06 03:21:00,
2013-05-05 23:32:00,46.0,43.0,30.29,East,80,8.0,10.0,90,-99.99,,,-99.99,,2013-05-06 03:32:00,
2013-05-05 23:42:00,46.0,43.0,30.29,East,80,8.0,10.0,90,-99.99,,,-99.99,,2013-05-06 03:42:00,
2013-05-05 23:52:00,46.0,43.0,30.29,East,80,8.0,10.0,90,-99.99,,,-99.99,,2013-05-06 03:52:00,